This is the latest recevied weather packets stored in our database for station/object KB9MLJ. If no packets are shown the sender has not sent any weather packets the latest 10 day(s).
| Time | Temp. | Humidity | Pressure | Rain* | Wind** | Luminosity | Snow |
|---|---|---|---|---|---|---|---|
| 1777762921 | 13.33° C | 42% | 1017.2 hPa | 0 mm | - | 189 W/m² | - |
| 1777762616 | 12.78° C | 42% | 1017.2 hPa | 0 mm | - | 221 W/m² | - |
| 1777762314 | 13.33° C | 43% | 1017.2 hPa | 0 mm | - | 173 W/m² | - |
| 1777762010 | 12.78° C | 43% | 1017.2 hPa | 0 mm | - | 279 W/m² | - |
| 1777761707 | 12.78° C | 43% | 1017.5 hPa | 0 mm | - | 303 W/m² | - |
| 1777761405 | 12.78° C | 43% | 1017.5 hPa | 0 mm | - | 177 W/m² | - |
| 1777761103 | 12.22° C | 44% | 1017.2 hPa | 0 mm | - | 111 W/m² | - |
| 1777760800 | 12.22° C | 44% | 1017.5 hPa | 0 mm | - | 91 W/m² | - |
| 1777760496 | 12.22° C | 43% | 1017.5 hPa | 0 mm | - | 87 W/m² | - |
| 1777760192 | 12.22° C | 43% | 1017.5 hPa | 0 mm | - | 99 W/m² | - |
| 1777759889 | 12.22° C | 44% | 1017.5 hPa | 0 mm | - | 105 W/m² | - |
| 1777759586 | 12.22° C | 43% | 1017.5 hPa | 0 mm | - | 99 W/m² | - |
| 1777759282 | 12.78° C | 44% | 1017.5 hPa | 0 mm | - | 102 W/m² | - |
| 1777758979 | 12.78° C | 44% | 1017.5 hPa | 0 mm | - | 125 W/m² | - |
| 1777758676 | 13.33° C | 43% | 1017.8 hPa | 0 mm | - | 386 W/m² | - |
| 1777758373 | 13.33° C | 41% | 1017.5 hPa | 0 mm | - | 383 W/m² | - |
| 1777758070 | 12.78° C | 43% | 1017.5 hPa | 0 mm | - | 368 W/m² | - |
| 1777757768 | 12.78° C | 43% | 1017.5 hPa | 0 mm | - | 385 W/m² | - |
| 1777757465 | 12.78° C | 42% | 1017.5 hPa | 0 mm | - | 429 W/m² | - |
| 1777757164 | 12.22° C | 43% | 1017.5 hPa | 0 mm | - | 448 W/m² | - |
| 1777756861 | 12.22° C | 43% | 1017.5 hPa | 0 mm | - | 140 W/m² | - |
| 1777756556 | 12.78° C | 42% | 1017.5 hPa | 0 mm | - | 166 W/m² | - |
| 1777756254 | 13.33° C | 42% | 1017.5 hPa | 0 mm | - | 604 W/m² | - |
| 1777755951 | 12.22° C | 43% | 1017.5 hPa | 0 mm | - | 607 W/m² | - |
| 1777755648 | 12.22° C | 42% | 1017.5 hPa | 0 mm | - | 262 W/m² | - |
* Rain latest hour (hover to see other rain measurements)
** Current wind speed in m/s (hover to see current wind gust speed)